COSMOS 249 DEB, 3794

Orbit data source: Space-Track

COSMOS 249 DEB, 3794 is space debris in LEO originally from a launch on Sun, 20 Oct 1968 UTC launched from the Tyuratam Missile And Space Complex (TTMTR). Debris objects in space refer to the collection of defunct objects orbiting the Earth. Examples of debris include non-operational satellites, rocket bodies, and fragments generated from explosions, collisions, or faulty payload assembly.

Loading next visibility...
Identifier
3794, 1968-091BB
Orbit
LEO
Country
Flag of CISCIS
Related business
Manufacturer
Unknown
Mission
Spacecraft
Bus & Motor
Unknown
Mass
Unknown
Launch date (UTC)
1968-10-20 (58 years ago)
Launch vehicle
Unknown
Launch site
Tyuratam Missile And Space Complex (TTMTR)
Object type
Payload
Rocket body
Debris
Shape & HBR
Unknown shape, 0.1 m
Radar Cross Section
Medium (>0.1 m² and <1 m²)

Expand to show TLE details & history
Last TLE update: 13 hours ago

TLE from 13 hours ago
0 COSMOS 249 DEB
1 03794U 68091BB  26174.67916149  .00002755  00000-0  24711-2 0  9996
2 03794  62.2718 283.1723 0563476 251.6453 102.2508 13.30898737710942
Epoch: 2026-06-23T16:17Z
TLE epoch observation values (Epoch: 2026-06-23T16:17:59.552Z)
Latitude
0.00003°
Longitude
126.82692°
Altitude
1,257.328 km
Speed
7.173 km/s
True Right ascension
18h 52m 41s
True Declination
0° 00' 00"
Sunlit
Object was in full shadow at epoch
Visualization orbit readout
Latitude
Unknown
Longitude
Unknown
Altitude
Unknown
Speed
Unknown
Apparent Right ascension
Unknown
Apparent Declination
Unknown
Sunlit
N/A
Visualization observer readout
Local Sidereal Time
16:19:05
Azimuth
Unknown
Elevation
Unknown
Doppler factor
Unknown
Orbital elements
Apogee altitude
1,566.11 km
Perigee altitude
718.587 km
Semi-major axis
7,520.486 km
Eccentricity
0.05635
Inclination
62.2718°
RAAN
283.1723°
Arg. of periapsis
251.6453°
True anomaly
108.45563°
Mean anomaly
102.2508°
Eccentric anomaly
105.3639°
Mean motion
3.32793 °/min
Orbital period
108.18 mins
BSTAR
0.0024711
Loading maneuver chart data...
Computing Atmospheric mass density...

Documentation

Showing up to 5 results
|